EW4685 Weather Reports


Display with metric or nautical units.
time (UTC)temp
F
wind
direction
speed
MPH
gust
MPH
rain 1hr
in
rain 24hr
in
rain mn
in
humidity
%
barometer
mb
20260902041635 69 256 4.0 11.0 0.00 0.00 0.00 47 1013.1
20260902041145 69 306 3.0 10.0 0.00 0.00 0.00 50 1013.1
20260902040404 69 201 2.0 10.0 0.00 0.00 0.00 49 1013.2
20260902035900 68 258 3.0 11.0 0.00 0.00 0.00 50 1013.2
20260902035617 69 223 3.0 11.0 0.00 0.00 0.00 48 1013.1
20260902035515 69 268 2.0 8.0 0.00 0.00 0.00 49 1013.2
20260902033836 69 287 4.0 12.0 0.00 0.00 0.00 48 1013.2
20260902033329 69 223 3.0 9.0 0.00 0.00 0.00 48 1013.2
20260902032825 68 263 4.0 12.0 0.00 0.00 0.00 49 1013.4
20260902032318 68 235 5.0 14.0 0.00 0.00 0.00 48 1013.4
20260902031814 68 337 4.0 14.0 0.00 0.00 0.00 49 1013.5
20260902031526 69 268 3.0 15.0 0.00 0.00 0.00 47 1013.6
20260902030759 69 294 4.0 15.0 0.00 0.00 0.00 49 1013.7
20260902030255 68 298 4.0 15.0 0.00 0.00 0.00 50 1013.7
20260902025747 68 72 4.0 15.0 0.00 0.00 0.00 49 1013.9
20260902025244 69 244 3.0 12.0 0.00 0.00 0.00 48 1013.9
20260902024736 68 344 3.0 12.0 0.00 0.00 0.00 52 1014.1
20260902024724 68 263 2.0 9.0 0.00 0.00 0.00 51 1014.0
20260902023725 67 296 1.0 7.0 0.00 0.00 0.00 55 1014.2
20260902023220 66 322 1.0 7.0 0.00 0.00 0.00 58 1014.2
20260902022720 66 273 2.0 8.0 0.00 0.00 0.00 59 1014.3
20260902022217 66 19 2.0 8.0 0.00 0.00 0.00 60 1014.4
20260902021718 65 313 2.0 8.0 0.00 0.00 0.00 61 1014.5
20260902021218 65 308 3.0 7.0 0.00 0.00 0.00 60 1014.7
20260902020718 66 329 2.0 7.0 0.00 0.00 0.00 60 1014.6
20260902020439 66 55 2.0 8.0 0.00 0.00 0.00 60 1014.7
20260902015947 66 40 2.0 9.0 0.00 0.00 0.00 60 1014.7
20260902015218 66 50 2.0 12.0 0.00 0.00 0.00 59 1015.0
20260902014718 66 337 3.0 12.0 0.00 0.00 0.00 61 1015.1
20260902014215 66 298 3.0 12.0 0.00 0.00 0.00 60 1015.2
20260902013716 66 11 2.0 12.0 0.00 0.00 0.00 58 1015.2
20260902013217 66 11 2.0 7.0 0.00 0.00 0.00 60 1015.3
20260902012712 66 356 3.0 7.0 0.00 0.00 0.00 58 1015.3
20260902012212 66 308 3.0 7.0 0.00 0.00 0.00 59 1015.3
20260902011712 66 326 3.0 10.0 0.00 0.00 0.00 60 1015.4
20260902011212 66 320 2.0 10.0 0.00 0.00 0.00 58 1015.4
20260902010712 65 303 3.0 9.0 0.00 0.00 0.00 59 1015.4
20260902010433 65 296 3.0 9.0 0.00 0.00 0.00 59 1015.4
20260902005711 65 325 3.0 12.0 0.00 0.00 0.00 59 1015.5
20260902005212 65 11 3.0 12.0 0.00 0.00 0.00 59 1015.5
20260902004931 65 289 3.0 11.0 0.00 0.00 0.00 59 1015.5
20260902004208 64 32 4.0 11.0 0.00 0.00 0.00 59 1015.6
20260902003927 64 319 3.0 10.0 0.00 0.00 0.00 61 1015.7
20260902003208 64 358 3.0 10.0 0.00 0.00 0.00 62 1015.6
20260902002708 64 5 4.0 12.0 0.00 0.00 0.00 63 1015.7
20260902002433 63 295 3.0 12.0 0.00 0.00 0.00 62 1015.8
20260902001708 63 236 3.0 10.0 0.00 0.00 0.00 64 1015.7
20260902001207 62 306 4.0 11.0 0.00 0.00 0.00 65 1015.7
20260902000708 62 339 4.0 11.0 0.00 0.00 0.00 65 1015.8
20260902000208 62 284 5.0 13.0 0.00 0.00 0.00 66 1015.7
20260901235702 61 70 5.0 15.0 0.00 0.00 0.00 67 1015.8
20260901235201 61 328 4.0 15.0 0.00 0.00 0.00 67 1015.9
20260901234932 61 254 3.0 8.0 0.00 0.00 0.00 68 1015.9
20260901234202 61 24 3.0 9.0 0.00 0.00 0.00 68 1015.8
20260901233659 61 36 3.0 9.0 0.00 0.00 0.00 68 1015.8
20260901233158 60 21 3.0 11.0 0.00 0.00 0.00 68 1015.8
20260901232655 60 38 3.0 11.0 0.00 0.00 0.00 69 1015.8
20260901232156 60 1 2.0 8.0 0.00 0.00 0.00 68 1015.7
20260901231915 60 29 2.0 10.0 0.00 0.00 0.00 69 1015.8
20260901231155 60 284 3.0 10.0 0.00 0.00 0.00 69 1015.8
20260901230656 60 16 3.0 7.0 0.00 0.00 0.00 70 1015.8
20260901230155 60 38 2.0 8.0 0.00 0.00 0.00 69 1015.8
20260901225655 59 16 2.0 8.0 0.00 0.00 0.00 71 1015.9
20260901225155 59 27 2.0 9.0 0.00 0.00 0.00 71 1015.9
20260901224648 59 357 2.0 9.0 0.00 0.00 0.00 72 1015.8
20260901224143 58 310 2.0 7.0 0.00 0.00 0.00 72 1015.9
20260901223643 58 54 2.0 5.0 0.00 0.00 0.00 73 1015.9
20260901223141 58 71 2.0 9.0 0.00 0.00 0.00 74 1015.9
20260901222901 57 37 2.0 9.0 0.00 0.00 0.00 75 1015.9
20260901222139 57 52 2.0 7.0 0.00 0.00 0.00 76 1016.0
20260901221639 56 32 3.0 9.0 0.00 0.00 0.00 76 1016.0
20260901221138 56 31 2.0 9.0 0.00 0.00 0.00 77 1015.9
20260901220635 56 315 2.0 9.0 0.00 0.00 0.00 77 1015.9
20260901220356 55 356 3.0 10.0 0.00 0.00 0.00 78 1015.9
20260901215635 55 45 3.0 10.0 0.00 0.00 0.00 79 1015.9
20260901215135 55 321 1.0 7.0 0.00 0.00 0.00 80 1015.8
20260901214635 54 80 1.0 4.0 0.00 0.00 0.00 82 1015.7
20260901214135 53 14 1.0 4.0 0.00 0.00 0.00 83 1015.7
20260901213635 53 55 1.0 5.0 0.00 0.00 0.00 84 1015.7
20260901213230 53 45 1.0 5.0 0.00 0.00 0.00 85 1015.7
20260901212134 52 32 0.0 1.0 0.00 0.00 0.00 87 1015.6
20260901211634 51 45 0.0 2.0 0.00 0.00 0.00 87 1015.5
20260901211343 51 35 0.0 3.0 0.00 0.00 0.00 88 1015.4
20260901210619 51 25 0.0 3.0 0.00 0.00 0.00 88 1015.5
20260901210335 51 5 0.0 3.0 0.00 0.00 0.00 88 1015.6
20260901205607 51 29 1.0 3.0 0.00 0.00 0.00 88 1015.4
20260901205101 50 357 0.0 3.0 0.00 0.00 0.00 89 1015.4
20260901204554 50 36 0.0 1.0 0.00 0.00 0.00 89 1015.4
20260901204051 49 36 0.0 2.0 0.00 0.00 0.00 88 1015.4
20260901203543 50 43 0.0 1.0 0.00 0.00 0.00 87 1015.3
20260901203037 50 79 0.0 1.0 0.00 0.00 0.00 87 1015.3
20260901202531 50 69 0.0 1.0 0.00 0.00 0.00 87 1015.3
20260901202025 51 52 0.0 0.0 0.00 0.00 0.00 86 1015.3
20260901201521 51 331 0.0 0.0 0.00 0.00 0.00 85 1015.2
20260901201013 51 329 0.0 0.0 0.00 0.00 0.00 84 1015.1
20260901200737 52 330 0.0 0.0 0.00 0.00 0.00 84 1015.0
20260901200006 52 329 0.0 3.0 0.00 0.00 0.00 83 1014.7
20260901195455 52 310 0.0 3.0 0.00 0.00 0.00 83 1014.5
20260901194949 52 38 0.0 3.0 0.00 0.00 0.00 83 1014.5
20260901194706 52 26 0.0 4.0 0.00 0.00 0.00 83 1014.5
20260901193937 52 49 1.0 4.0 0.00 0.00 0.00 83 1014.5
20260901193442 52 31 1.0 6.0 0.00 0.00 0.00 83 1014.6
20260901192926 53 352 1.0 6.0 0.00 0.00 0.00 83 1014.6
20260901192421 53 44 1.0 6.0 0.00 0.00 0.00 83 1014.7
20260901192135 53 36 1.0 8.0 0.00 0.00 0.00 83 1014.7
20260901191407 52 25 1.0 8.0 0.00 0.00 0.00 83 1014.7
20260901191124 52 349 1.0 7.0 0.00 0.00 0.00 83 1014.6
20260901190356 52 3 1.0 7.0 0.00 0.00 0.00 83 1014.6
20260901185855 52 32 1.0 5.0 0.00 0.00 0.00 84 1014.6
20260901185355 52 34 1.0 4.0 0.00 0.00 0.00 83 1014.5
20260901184855 53 34 1.0 3.0 0.00 0.00 0.00 83 1014.5
20260901184354 53 17 1.0 4.0 0.00 0.00 0.00 82 1014.5
20260901183851 53 31 2.0 5.0 0.00 0.00 0.00 82 1014.3
20260901183351 53 42 2.0 9.0 0.00 0.00 0.00 81 1014.5
20260901182852 53 46 2.0 9.0 0.00 0.00 0.00 81 1014.7
20260901182351 53 44 1.0 4.0 0.00 0.00 0.00 81 1015.2
20260901181852 53 341 1.0 5.0 0.00 0.00 0.00 81 1015.3
20260901181349 53 27 1.0 5.0 0.00 0.00 0.00 81 1015.2
20260901180847 53 27 1.0 3.0 0.00 0.00 0.00 81 1015.2
20260901180347 53 356 1.0 4.0 0.00 0.00 0.00 81 1015.2
20260901175847 53 24 2.0 6.0 0.00 0.00 0.00 81 1015.1
20260901175347 53 38 3.0 6.0 0.00 0.00 0.00 80 1015.1
20260901174847 53 27 2.0 6.0 0.00 0.00 0.00 80 1015.1
20260901174347 53 33 1.0 5.0 0.00 0.00 0.00 80 1015.0
20260901174106 53 43 1.0 5.0 0.00 0.00 0.00 80 1014.8
20260901173347 53 40 0.0 3.0 0.00 0.00 0.00 78 1014.8
20260901173107 54 40 0.0 3.0 0.00 0.00 0.00 77 1014.8
20260901172334 55 13 1.0 5.0 0.00 0.00 0.00 76 1014.8
20260901171840 55 300 1.0 6.0 0.00 0.00 0.00 74 1014.7
20260901171820 55 328 2.0 6.0 0.00 0.00 0.00 74 1014.7
20260901170818 55 50 2.0 6.0 0.00 0.00 0.00 74 1014.6
20260901170313 55 311 2.0 7.0 0.00 0.00 0.00 75 1015.1
20260901165808 55 297 1.0 7.0 0.00 0.00 0.00 75 1015.6
20260901165531 55 20 1.0 4.0 0.00 0.00 0.00 76 1015.6
20260901164755 55 76 0.0 3.0 0.00 0.00 0.00 76 1015.7
20260901164248 55 7 0.0 3.0 0.00 0.00 0.00 76 1015.7
20260901163742 55 333 1.0 5.0 0.00 0.00 0.00 76 1015.7
20260901163235 55 318 1.0 5.0 0.00 0.00 0.00 76 1015.8
20260901162735 55 54 1.0 9.0 0.00 0.00 0.00 77 1015.7
20260901162234 54 318 1.0 9.0 0.00 0.00 0.00 78 1015.7
20260901161736 54 9 0.0 7.0 0.00 0.00 0.00 78 1015.6
20260901161233 54 41 1.0 7.0 0.00 0.00 0.00 78 1015.5
20260901160733 54 13 1.0 4.0 0.00 0.00 0.00 79 1015.6
20260901160235 54 46 1.0 3.0 0.00 0.00 0.00 80 1015.7
20260901155733 54 312 0.0 4.0 0.00 0.00 0.00 81 1015.8
20260901155232 54 21 1.0 5.0 0.00 0.00 0.00 82 1015.9
20260901154732 54 329 1.0 5.0 0.00 0.00 0.00 82 1016.0
20260901154232 53 31 0.0 3.0 0.00 0.00 0.00 83 1016.0
20260901153732 53 29 0.0 1.0 0.00 0.00 0.00 83 1016.1
20260901153447 53 23 0.0 2.0 0.00 0.00 0.00 84 1016.2
20260901152731 53 31 0.0 3.0 0.00 0.00 0.00 84 1016.3
20260901152225 53 327 0.0 3.0 0.00 0.00 0.00 85 1016.3
20260901151725 53 46 0.0 3.0 0.00 0.00 0.00 85 1016.3
20260901151225 53 20 0.0 3.0 0.00 0.00 0.00 85 1016.3
20260901150725 53 282 0.0 3.0 0.00 0.00 0.00 86 1016.2
20260901150224 53 346 0.0 2.0 0.00 0.00 0.00 86 1016.1
20260901145724 53 337 0.0 1.0 0.00 0.00 0.00 85 1016.1
20260901145456 53 323 0.0 0.0 0.00 0.00 0.00 85 1016.2
20260901144726 53 323 0.0 0.0 0.00 0.00 0.00 85 1016.4
20260901144225 53 323 0.0 0.0 0.00 0.00 0.00 85 1016.7
20260901143725 53 323 0.0 0.0 0.00 0.00 0.00 84 1016.7
20260901143225 53 323 0.0 0.0 0.00 0.00 0.00 84 1016.4
20260901142724 53 354 0.0 4.0 0.00 0.00 0.00 84 1016.3
20260901142225 53 354 1.0 5.0 0.00 0.00 0.00 84 1016.3
20260901141951 53 45 1.0 5.0 0.00 0.00 0.00 85 1016.3
20260901141225 53 38 1.0 5.0 0.00 0.00 0.00 85 1016.3
20260901140725 53 52 1.0 5.0 0.00 0.00 0.00 85 1016.2
20260901140225 53 12 1.0 2.0 0.00 0.00 0.00 85 1016.7
20260901135725 52 48 0.0 2.0 0.00 0.00 0.00 85 1016.8
20260901135218 53 42 0.0 2.0 0.00 0.00 0.00 85 1016.7
20260901134713 53 51 0.0 1.0 0.00 0.00 0.00 85 1016.8
20260901134208 53 51 0.0 3.0 0.00 0.00 0.00 84 1016.7
20260901133701 53 57 1.0 4.0 0.00 0.00 0.00 84 1016.7
20260901133156 53 10 1.0 4.0 0.00 0.00 0.00 84 1016.8
20260901132649 53 19 1.0 4.0 0.00 0.00 0.00 83 1016.8
20260901132143 53 43 1.0 3.0 0.00 0.00 0.00 83 1016.8
20260901131637 53 45 1.0 3.0 0.00 0.00 0.00 83 1016.9
20260901131132 53 40 1.0 4.0 0.00 0.00 0.00 82 1017.0
20260901130626 53 39 1.0 4.0 0.00 0.00 0.00 82 1017.0
20260901130121 53 27 1.0 4.0 0.00 0.00 0.00 82 1017.0
20260901125614 53 15 2.0 5.0 0.00 0.00 0.00 82 1017.2
20260901125109 53 50 2.0 5.0 0.00 0.00 0.00 82 1017.3
20260901124602 53 57 2.0 5.0 0.00 0.00 0.00 82 1017.5
20260901124057 53 17 1.0 4.0 0.00 0.00 0.00 82 1017.5
20260901123550 54 48 1.0 5.0 0.00 0.00 0.00 81 1017.6
20260901123043 54 17 2.0 5.0 0.00 0.00 0.00 81 1017.8
20260901122538 54 42 2.0 5.0 0.00 0.00 0.00 81 1017.7
20260901122258 54 30 2.0 5.0 0.00 0.00 0.00 81 1017.8
20260901121527 54 54 1.0 4.0 0.00 0.00 0.00 81 1017.8
20260901121019 54 61 1.0 5.0 0.00 0.00 0.00 81 1017.8
20260901120740 54 48 1.0 5.0 0.00 0.00 0.00 81 1017.9
20260901120008 54 52 0.0 2.0 0.00 0.00 0.00 80 1018.0
20260901115501 54 52 0.0 0.0 0.00 0.00 0.00 80 1018.1
20260901115220 54 24 0.0 1.0 0.00 0.00 0.00 80 1018.1
20260901114711 54 38 0.0 1.0 0.00 0.00 0.00 80 1018.1
20260901113949 54 347 0.0 3.0 0.00 0.00 0.00 79 1018.1
20260901113436 54 34 1.0 4.0 0.00 0.00 0.00 79 1018.2
20260901113156 55 26 1.0 6.0 0.00 0.00 0.00 78 1018.2
20260901112425 55 48 1.0 6.0 0.00 0.00 0.00 78 1018.4
20260901111925 55 38 1.0 5.0 0.00 0.00 0.00 78 1018.4
20260901111649 55 38 1.0 4.0 0.00 0.00 0.00 78 1018.4
20260901110925 55 346 0.0 3.0 0.00 0.00 0.00 77 1018.4
20260901110424 55 337 0.0 4.0 0.00 0.00 0.00 77 1018.4
20260901110146 55 295 1.0 4.0 0.00 0.00 0.00 76 1018.4
20260901105426 55 35 1.0 4.0 0.00 0.00 0.00 77 1018.2
20260901104925 55 306 0.0 3.0 0.00 0.00 0.00 77 1018.4
20260901104425 55 343 0.0 3.0 0.00 0.00 0.00 76 1018.4
20260901103925 55 315 1.0 6.0 0.00 0.00 0.00 75 1018.5
20260901103425 55 308 1.0 6.0 0.00 0.00 0.00 75 1018.5
20260901103148 55 297 0.0 3.0 0.00 0.00 0.00 75 1018.5
20260901102421 56 310 0.0 4.0 0.00 0.00 0.00 74 1018.4
20260901101920 56 338 1.0 4.0 0.00 0.00 0.00 74 1018.4
20260901101421 56 309 1.0 5.0 0.00 0.00 0.00 73 1018.4
20260901101402 56 29 1.0 5.0 0.00 0.00 0.00 73 1018.4
20260901100421 56 341 0.0 4.0 0.00 0.00 0.00 72 1018.5
20260901095920 56 50 0.0 4.0 0.00 0.00 0.00 72 1018.5
20260901095421 56 324 1.0 6.0 0.00 0.00 0.00 71 1018.6
20260901094921 57 299 1.0 6.0 0.00 0.00 0.00 71 1018.6
20260901094421 57 357 1.0 4.0 0.00 0.00 0.00 70 1018.5
20260901093921 57 297 1.0 4.0 0.00 0.00 0.00 69 1018.5
20260901093421 57 2 1.0 5.0 0.00 0.00 0.00 68 1018.5
20260901092921 58 329 2.0 5.0 0.00 0.00 0.00 68 1018.4
20260901092420 58 309 2.0 5.0 0.00 0.00 0.00 68 1018.4
20260901092147 58 324 1.0 5.0 0.00 0.00 0.00 68 1018.4
20260901091420 58 0 1.0 4.0 0.00 0.00 0.00 67 1018.5
20260901091143 58 28 0.0 4.0 0.00 0.00 0.00 67 1018.6
20260901090420 58 14 1.0 5.0 0.00 0.00 0.00 66 1018.5
20260901085920 58 296 1.0 5.0 0.00 0.00 0.00 65 1018.7
20260901085414 58 23 1.0 5.0 0.00 0.00 0.00 64 1018.8
20260901084914 59 349 2.0 10.0 0.00 0.00 0.00 64 1018.7
20260901084413 59 18 2.0 10.0 0.00 0.00 0.00 64 1018.8
20260901083912 59 7 1.0 6.0 0.00 0.00 0.00 63 1018.9
20260901083413 59 59 2.0 6.0 0.00 0.00 0.00 63 1018.9
20260901083145 60 300 2.0 5.0 0.00 0.00 0.00 62 1018.9
20260901082410 60 22 2.0 9.0 0.00 0.00 0.00 61 1018.8
20260901081911 60 324 2.0 9.0 0.00 0.00 0.00 61 1018.8
20260901081410 60 261 3.0 8.0 0.00 0.00 0.00 60 1018.7
20260901081129 60 346 2.0 8.0 0.00 0.00 0.00 60 1018.6
20260901080407 60 22 2.0 7.0 0.00 0.00 0.00 59 1018.6
20260901075905 60 291 2.0 7.0 0.00 0.00 0.00 59 1018.6
20260901075404 61 357 1.0 6.0 0.00 0.00 0.00 59 1018.6
20260901074904 61 297 1.0 7.0 0.00 0.00 0.00 59 1018.6
20260901074405 61 324 2.0 7.0 0.00 0.00 0.00 58 1018.6
20260901073904 62 302 1.0 7.0 0.00 0.00 0.00 57 1018.6
20260901073402 62 1 1.0 7.0 0.00 0.00 0.00 57 1018.6
20260901072902 62 356 2.0 8.0 0.00 0.00 0.00 55 1018.7
20260901072402 63 292 1.0 8.0 0.00 0.00 0.00 53 1018.7
20260901071855 64 344 1.0 4.0 0.00 0.00 0.00 53 1018.8
20260901071350 64 300 1.0 7.0 0.00 0.00 0.00 52 1018.8
20260901070844 64 279 1.0 7.0 0.00 0.00 0.00 52 1018.7
20260901070555 64 330 2.0 8.0 0.00 0.00 0.00 52 1018.8
20260901065832 64 348 3.0 10.0 0.00 0.00 0.00 51 1018.8
20260901065326 64 258 3.0 10.0 0.00 0.00 0.00 50 1018.8
20260901064820 65 346 3.0 12.0 0.00 0.00 0.00 50 1018.8
20260901064314 65 256 4.0 12.0 0.00 0.00 0.00 51 1018.8
20260901063807 65 323 4.0 11.0 0.00 0.00 0.00 50 1018.9
20260901063301 65 277 4.0 11.0 0.00 0.00 0.00 51 1018.9
20260901062755 65 332 3.0 11.0 0.00 0.00 0.00 49 1018.9
20260901062250 65 344 3.0 10.0 0.00 0.00 0.00 50 1018.9
20260901061743 65 258 3.0 12.0 0.00 0.00 0.00 50 1018.9
20260901061458 65 267 3.0 12.0 0.00 0.00 0.00 49 1018.9
20260901060957 66 297 3.0 11.0 0.00 0.00 0.00 49 1019.0
20260901060226 66 238 4.0 11.0 0.00 0.00 0.00 48 1018.9
20260901055720 66 312 4.0 11.0 0.00 0.00 0.00 47 1019.0
20260901055213 66 68 4.0 10.0 0.00 0.00 0.00 45 1019.1
20260901054933 67 313 3.0 14.0 0.00 0.00 0.00 45 1019.0
20260901054202 67 223 3.0 14.0 0.00 0.00 0.00 44 1019.0
20260901053656 67 282 3.0 12.0 0.00 0.00 0.00 45 1018.9
20260901053626 67 258 4.0 12.0 0.00 0.00 0.00 44 1019.0
20260901052644 66 23 4.0 11.0 0.00 0.00 0.00 45 1019.0
20260901052138 67 261 4.0 13.0 0.00 0.00 0.00 44 1019.1
20260901051632 67 244 4.0 13.0 0.00 0.00 0.00 43 1019.1
20260901051128 67 251 4.0 13.0 0.00 0.00 0.00 43 1019.3
20260901050841 67 256 4.0 14.0 0.00 0.00 0.00 43 1019.3
20260901050113 67 197 4.0 14.0 0.00 0.00 0.00 43 1019.3
20260901045607 67 297 4.0 11.0 0.00 0.00 0.00 42 1019.3
20260901045102 67 277 5.0 16.0 0.00 0.00 0.00 43 1019.3
20260901044556 67 292 5.0 16.0 0.00 0.00 0.00 41 1019.3
20260901044050 67 59 4.0 13.0 0.00 0.00 0.00 42 1019.5
20260901043544 67 277 5.0 11.0 0.00 0.00 0.00 41 1019.3
20260901043044 67 327 5.0 19.0 0.00 0.00 0.00 42 1019.3
20260901042806 67 242 5.0 19.0 0.00 0.00 0.00 43 1019.4